Location: Unspecified
(49.8670°N, 0.0000°E)
Time: 02:29:20
(UTC+00:00)

Vanguard 1 - Pass Details

Date: 28 June 2019
Orbit: 655 x 3829 km, 34.2° (Epoch: 16 August)

Event Time Altitude Azimuth Distance (km) Brightness Sun altitude
Rises 03:04:38 0° 250° (WSW) 7,781 14.1 -6.5°
Reaches altitude 10° 03:10:44 10° 245° (WSW) 6,479 13.7 -5.9°
Maximum altitude 03:27:51 42° 185° (S) 3,212 12.4 -4.0°
Drops below altitude 10° 03:38:07 10° 119° (ESE) 3,967 13.4 -2.7°
Sets 03:40:51 0° 112° (ESE) 4,618 13.9 -2.4°
